Upstream stations:
Downstream station:
SHEF ID: ANTO2 Kiamichi River near Antlers, OK
STATION TYPE:
Regulating: Stage = 22.00, Flow = 20000
STAGE RIV-FLOW BAT-LOAD
ft cfs volt
Ccp-Rev Ccp-Rev Ccp-Rev
(US/Central)
07/12 00:00 1.88 22 12.43
07/12 01:00 1.89 23 12.42
07/12 02:00 1.89 23 12.40
07/12 03:00 1.89 23 12.39
07/12 04:00 1.90 24 12.37
07/12 05:00 1.90 24 12.36
07/12 06:00 1.90 24 12.34
07/12 07:00 1.90 24 12.33
07/12 08:00 1.90 24 12.53
07/12 09:00 1.90 24 12.99
07/12 10:00 1.90 24 13.41
07/12 11:00 1.90 24 13.34
07/12 12:00 1.89 23 12.82
07/12 13:00 1.89 23 12.82
07/12 14:00 1.84 19 12.80
07/12 15:00 1.88 22 12.82
07/12 16:00 1.87 22 12.79
07/12 17:00 1.86 21 12.77
07/12 18:00 1.86 21 12.80
07/12 19:00 1.86 21 12.82
07/12 20:00 1.86 21 12.74
07/12 21:00 1.87 22 12.52
07/12 22:00 1.87 22 12.48
07/12 23:00 1.86 21 12.46